| time (UTC) | temp F | wind direction | speed MPH | gust MPH | rain 1hr in | rain 24hr in | rain mn in | humidity % | barometer mb |
| 20260505021003 | 66 | 231 | 1.0 | 2.0 | 0.00 | 0.00 | 0.00 | 47 | 1014.4 |
| 20260505020502 | 66 | 337 | 0.0 | 1.0 | 0.00 | 0.00 | 0.00 | 47 | 1014.4 |
| 20260505020003 | 66 | 343 | 0.0 | 1.0 | 0.00 | 0.00 | 0.00 | 47 | 1014.3 |
| 20260505015503 | 66 | 196 | 1.0 | 5.0 | 0.00 | 0.00 | 0.00 | 47 | 1014.2 |
| 20260505015002 | 65 | 271 | 0.0 | 2.0 | 0.00 | 0.00 | 0.00 | 48 | 1014.2 |
| 20260505014502 | 65 | 322 | 0.0 | 1.0 | 0.00 | 0.00 | 0.00 | 49 | 1014.2 |
| 20260505013003 | 64 | 334 | 0.0 | 1.0 | 0.00 | 0.00 | 0.00 | 50 | 1014.1 |
| 20260505012503 | 65 | 283 | 0.0 | 1.0 | 0.00 | 0.00 | 0.00 | 50 | 1014.0 |
| 20260505012002 | 65 | 316 | 0.0 | 1.0 | 0.00 | 0.00 | 0.00 | 50 | 1014.0 |
| 20260505011502 | 65 | 310 | 0.0 | 1.0 | 0.00 | 0.00 | 0.00 | 50 | 1013.9 |
| 20260505011003 | 65 | 301 | 0.0 | 1.0 | 0.00 | 0.00 | 0.00 | 49 | 1013.9 |
| 20260505010502 | 65 | 100 | 0.0 | 1.0 | 0.00 | 0.00 | 0.00 | 48 | 1013.8 |
| 20260505010002 | 66 | 195 | 0.0 | 1.0 | 0.00 | 0.00 | 0.00 | 48 | 1013.8 |
| 20260505005502 | 66 | 315 | 0.0 | 1.0 | 0.00 | 0.00 | 0.00 | 47 | 1013.7 |
| 20260505005002 | 67 | 116 | 0.0 | 1.0 | 0.00 | 0.00 | 0.00 | 46 | 1013.6 |
| 20260505004502 | 67 | 355 | 0.0 | 1.0 | 0.00 | 0.00 | 0.00 | 45 | 1013.6 |
| 20260505004002 | 67 | 10 | 0.0 | 1.0 | 0.00 | 0.00 | 0.00 | 45 | 1013.5 |
| 20260505003003 | 68 | 20 | 0.0 | 1.0 | 0.00 | 0.00 | 0.00 | 43 | 1013.4 |
| 20260505002002 | 69 | 158 | 0.0 | 1.0 | 0.00 | 0.00 | 0.00 | 42 | 1013.3 |
| 20260505001502 | 69 | 343 | 0.0 | 1.0 | 0.00 | 0.00 | 0.00 | 43 | 1013.3 |
| 20260505001003 | 69 | 227 | 0.0 | 2.0 | 0.00 | 0.00 | 0.00 | 42 | 1013.2 |
| 20260505000502 | 70 | 164 | 0.0 | 2.0 | 0.00 | 0.00 | 0.00 | 42 | 1013.2 |
| 20260505000002 | 70 | 291 | 0.0 | 1.0 | 0.00 | 0.00 | 0.00 | 40 | 1013.1 |
| 20260504235502 | 71 | 164 | 0.0 | 1.0 | 0.00 | 0.00 | 0.00 | 39 | 1013.1 |
| 20260504235003 | 72 | 62 | 0.0 | 0.0 | 0.00 | 0.00 | 0.00 | 38 | 1013.0 |
| 20260504234504 | 73 | 156 | 0.0 | 0.0 | 0.00 | 0.00 | 0.00 | 37 | 1013.0 |
| 20260504233503 | 74 | 173 | 0.0 | 0.0 | 0.00 | 0.00 | 0.00 | 34 | 1012.9 |
| 20260504233003 | 74 | 219 | 0.0 | 1.0 | 0.00 | 0.00 | 0.00 | 33 | 1012.8 |
| 20260504232503 | 75 | 90 | 0.0 | 2.0 | 0.00 | 0.00 | 0.00 | 32 | 1012.8 |
| 20260504232003 | 75 | 194 | 0.0 | 2.0 | 0.00 | 0.00 | 0.00 | 32 | 1012.7 |
| 20260504231502 | 75 | 223 | 0.0 | 2.0 | 0.00 | 0.00 | 0.00 | 32 | 1012.7 |
| 20260504231002 | 75 | 293 | 1.0 | 2.0 | 0.00 | 0.00 | 0.00 | 33 | 1012.7 |
| 20260504230502 | 76 | 334 | 1.0 | 3.0 | 0.00 | 0.00 | 0.00 | 31 | 1012.7 |
| 20260504230002 | 76 | 10 | 1.0 | 3.0 | 0.00 | 0.00 | 0.00 | 32 | 1012.7 |
| 20260504225502 | 76 | 43 | 1.0 | 2.0 | 0.00 | 0.00 | 0.00 | 32 | 1012.7 |
| 20260504225002 | 76 | 265 | 1.0 | 2.0 | 0.00 | 0.00 | 0.00 | 32 | 1012.7 |
| 20260504224503 | 77 | 205 | 2.0 | 3.0 | 0.00 | 0.00 | 0.00 | 32 | 1012.7 |
| 20260504224003 | 77 | 283 | 1.0 | 3.0 | 0.00 | 0.00 | 0.00 | 31 | 1012.7 |
| 20260504223002 | 77 | 314 | 2.0 | 3.0 | 0.00 | 0.00 | 0.00 | 32 | 1012.9 |
| 20260504222003 | 77 | 283 | 1.0 | 2.0 | 0.00 | 0.00 | 0.00 | 31 | 1012.8 |
| 20260504221502 | 78 | 199 | 1.0 | 3.0 | 0.00 | 0.00 | 0.00 | 31 | 1012.8 |
| 20260504221002 | 78 | 210 | 2.0 | 7.0 | 0.00 | 0.00 | 0.00 | 31 | 1012.8 |
| 20260504220502 | 78 | 200 | 1.0 | 3.0 | 0.00 | 0.00 | 0.00 | 32 | 1012.8 |
| 20260504215502 | 78 | 196 | 1.0 | 3.0 | 0.00 | 0.00 | 0.00 | 32 | 1012.8 |
| 20260504215002 | 78 | 167 | 1.0 | 5.0 | 0.00 | 0.00 | 0.00 | 32 | 1012.9 |
| 20260504214502 | 78 | 246 | 1.0 | 3.0 | 0.00 | 0.00 | 0.00 | 32 | 1012.7 |
| 20260504214002 | 78 | 147 | 1.0 | 3.0 | 0.00 | 0.00 | 0.00 | 32 | 1012.7 |
| 20260504213502 | 78 | 174 | 3.0 | 6.0 | 0.00 | 0.00 | 0.00 | 31 | 1012.6 |
| 20260504212502 | 78 | 130 | 1.0 | 6.0 | 0.00 | 0.00 | 0.00 | 32 | 1012.8 |
| 20260504212002 | 78 | 187 | 2.0 | 7.0 | 0.00 | 0.00 | 0.00 | 32 | 1012.9 |
| 20260504211503 | 78 | 264 | 1.0 | 3.0 | 0.00 | 0.00 | 0.00 | 32 | 1012.9 |
| 20260504211003 | 78 | 188 | 1.0 | 5.0 | 0.00 | 0.00 | 0.00 | 31 | 1012.9 |
| 20260504210502 | 78 | 235 | 1.0 | 6.0 | 0.00 | 0.00 | 0.00 | 32 | 1013.0 |
| 20260504210003 | 78 | 227 | 1.0 | 3.0 | 0.00 | 0.00 | 0.00 | 32 | 1012.9 |
| 20260504205502 | 78 | 167 | 2.0 | 5.0 | 0.00 | 0.00 | 0.00 | 32 | 1012.8 |
| 20260504205003 | 78 | 223 | 1.0 | 3.0 | 0.00 | 0.00 | 0.00 | 32 | 1012.9 |
| 20260504204003 | 78 | 165 | 1.0 | 6.0 | 0.00 | 0.00 | 0.00 | 32 | 1012.9 |
| 20260504203502 | 78 | 169 | 2.0 | 3.0 | 0.00 | 0.00 | 0.00 | 31 | 1013.1 |
| 20260504201502 | 79 | 138 | 2.0 | 6.0 | 0.00 | 0.00 | 0.00 | 31 | 1013.1 |
| 20260504201002 | 79 | 212 | 1.0 | 3.0 | 0.00 | 0.00 | 0.00 | 32 | 1013.2 |
| 20260504200502 | 79 | 228 | 2.0 | 5.0 | 0.00 | 0.00 | 0.00 | 31 | 1013.1 |
| 20260504200003 | 79 | 334 | 1.0 | 5.0 | 0.00 | 0.00 | 0.00 | 31 | 1013.1 |
| 20260504195003 | 79 | 234 | 1.0 | 3.0 | 0.00 | 0.00 | 0.00 | 32 | 1013.4 |
| 20260504194503 | 79 | 151 | 2.0 | 7.0 | 0.00 | 0.00 | 0.00 | 33 | 1013.5 |
| 20260504194002 | 78 | 28 | 1.0 | 3.0 | 0.00 | 0.00 | 0.00 | 33 | 1013.5 |
| 20260504193503 | 78 | 146 | 2.0 | 6.0 | 0.00 | 0.00 | 0.00 | 32 | 1013.6 |
| 20260504193003 | 77 | 250 | 2.0 | 6.0 | 0.00 | 0.00 | 0.00 | 33 | 1013.6 |
| 20260504192502 | 77 | 175 | 2.0 | 5.0 | 0.00 | 0.00 | 0.00 | 34 | 1013.7 |
| 20260504192002 | 77 | 142 | 3.0 | 5.0 | 0.00 | 0.00 | 0.00 | 32 | 1013.8 |
| 20260504191503 | 77 | 154 | 2.0 | 6.0 | 0.00 | 0.00 | 0.00 | 34 | 1013.8 |
| 20260504191002 | 78 | 210 | 2.0 | 5.0 | 0.00 | 0.00 | 0.00 | 34 | 1013.8 |
| 20260504190502 | 77 | 206 | 2.0 | 6.0 | 0.00 | 0.00 | 0.00 | 36 | 1013.8 |
| 20260504190003 | 78 | 155 | 3.0 | 8.0 | 0.00 | 0.00 | 0.00 | 34 | 1013.8 |
| 20260504185503 | 77 | 323 | 2.0 | 3.0 | 0.00 | 0.00 | 0.00 | 33 | 1013.9 |
| 20260504185002 | 77 | 244 | 2.0 | 3.0 | 0.00 | 0.00 | 0.00 | 36 | 1013.9 |
| 20260504184503 | 77 | 161 | 1.0 | 7.0 | 0.00 | 0.00 | 0.00 | 34 | 1014.0 |
| 20260504184003 | 77 | 213 | 2.0 | 5.0 | 0.00 | 0.00 | 0.00 | 34 | 1014.0 |
| 20260504183502 | 77 | 144 | 2.0 | 3.0 | 0.00 | 0.00 | 0.00 | 35 | 1014.2 |
| 20260504183003 | 77 | 204 | 2.0 | 6.0 | 0.00 | 0.00 | 0.00 | 34 | 1014.3 |
| 20260504182503 | 77 | 280 | 1.0 | 3.0 | 0.00 | 0.00 | 0.00 | 35 | 1014.2 |
| 20260504182002 | 76 | 200 | 2.0 | 3.0 | 0.00 | 0.00 | 0.00 | 34 | 1014.2 |
| 20260504181503 | 76 | 306 | 2.0 | 3.0 | 0.00 | 0.00 | 0.00 | 36 | 1014.4 |
| 20260504181003 | 76 | 283 | 1.0 | 3.0 | 0.00 | 0.00 | 0.00 | 36 | 1014.5 |
| 20260504180502 | 76 | 200 | 1.0 | 3.0 | 0.00 | 0.00 | 0.00 | 36 | 1014.4 |
| 20260504180003 | 76 | 151 | 2.0 | 5.0 | 0.00 | 0.00 | 0.00 | 39 | 1014.5 |
| 20260504175003 | 75 | 352 | 2.0 | 3.0 | 0.00 | 0.00 | 0.00 | 35 | 1014.5 |
| 20260504174502 | 75 | 219 | 1.0 | 2.0 | 0.00 | 0.00 | 0.00 | 36 | 1014.5 |
| 20260504173502 | 74 | 339 | 2.0 | 6.0 | 0.00 | 0.00 | 0.00 | 37 | 1014.6 |
| 20260504173002 | 74 | 176 | 2.0 | 5.0 | 0.00 | 0.00 | 0.00 | 34 | 1014.6 |
| 20260504172503 | 74 | 262 | 2.0 | 5.0 | 0.00 | 0.00 | 0.00 | 36 | 1014.8 |
| 20260504172004 | 74 | 159 | 1.0 | 5.0 | 0.00 | 0.00 | 0.00 | 37 | 1014.9 |
| 20260504171504 | 74 | 292 | 1.0 | 3.0 | 0.00 | 0.00 | 0.00 | 39 | 1014.9 |
| 20260504171003 | 73 | 174 | 2.0 | 5.0 | 0.00 | 0.00 | 0.00 | 36 | 1015.0 |
| 20260504170502 | 73 | 154 | 2.0 | 5.0 | 0.00 | 0.00 | 0.00 | 39 | 1015.1 |
| 20260504151003 | 68 | 343 | 2.0 | 6.0 | 0.00 | 0.00 | 0.00 | 45 | 1016.1 |
| 20260504150503 | 69 | 250 | 1.0 | 6.0 | 0.00 | 0.00 | 0.00 | 45 | 1016.0 |
| 20260504141004 | 64 | 116 | 1.0 | 3.0 | 0.00 | 0.00 | 0.00 | 56 | 1016.3 |
| 20260504140502 | 64 | 137 | 1.0 | 3.0 | 0.00 | 0.00 | 0.00 | 56 | 1016.3 |
| 20260504130502 | 57 | 188 | 1.0 | 3.0 | 0.00 | 0.00 | 0.00 | 72 | 1016.5 |
| 20260504110502 | 47 | 302 | 0.0 | 1.0 | 0.00 | 0.00 | 0.00 | 90 | 1017.0 |
| 20260504100502 | 45 | 171 | 1.0 | 1.0 | 0.00 | 0.00 | 0.00 | 89 | 1016.6 |
| 20260504082003 | 42 | 193 | 0.0 | 1.0 | 0.00 | 0.00 | 0.00 | 90 | 1016.7 |
| 20260504081002 | 41 | 76 | 0.0 | 1.0 | 0.00 | 0.00 | 0.00 | 90 | 1016.7 |
| 20260504080503 | 41 | 254 | 0.0 | 1.0 | 0.00 | 0.00 | 0.00 | 89 | 1016.7 |
| 20260504050503 | 41 | 339 | 0.0 | 1.0 | 0.00 | 0.00 | 0.00 | 87 | 1017.2 |
| 20260504050003 | 41 | 350 | 0.0 | 1.0 | 0.00 | 0.00 | 0.00 | 86 | 1017.2 |
| 20260504045503 | 42 | 308 | 0.0 | 1.0 | 0.00 | 0.00 | 0.00 | 85 | 1017.2 |
| 20260504044503 | 42 | 335 | 0.0 | 0.0 | 0.00 | 0.00 | 0.00 | 86 | 1017.2 |
| 20260504043503 | 42 | 304 | 0.0 | 1.0 | 0.00 | 0.00 | 0.00 | 86 | 1017.3 |
| 20260504042502 | 42 | 316 | 0.0 | 1.0 | 0.00 | 0.00 | 0.00 | 86 | 1017.3 |
| 20260504041503 | 42 | 319 | 0.0 | 1.0 | 0.00 | 0.00 | 0.00 | 85 | 1017.2 |
| 20260504041003 | 42 | 283 | 0.0 | 1.0 | 0.00 | 0.00 | 0.00 | 84 | 1017.2 |
| 20260504040503 | 42 | 233 | 0.0 | 0.0 | 0.00 | 0.00 | 0.00 | 84 | 1017.2 |
| 20260504040003 | 43 | 210 | 0.0 | 1.0 | 0.00 | 0.10 | 0.00 | 84 | 1017.2 |
| 20260504035503 | 43 | 251 | 0.0 | 0.0 | 0.00 | 0.10 | 0.00 | 83 | 1017.2 |
| 20260504034503 | 43 | 180 | 0.0 | 0.0 | 0.00 | 0.10 | 0.00 | 83 | 1017.2 |
| 20260504033503 | 43 | 278 | 0.0 | 0.0 | 0.00 | 0.10 | 0.00 | 82 | 1017.2 |
| 20260504033003 | 43 | 278 | 0.0 | 0.0 | 0.00 | 0.10 | 0.00 | 83 | 1017.2 |
| 20260504032502 | 44 | 278 | 0.0 | 1.0 | 0.00 | 0.10 | 0.00 | 83 | 1017.2 |
| 20260504032003 | 44 | 340 | 0.0 | 1.0 | 0.00 | 0.10 | 0.00 | 82 | 1017.1 |
| 20260504031505 | 44 | 299 | 0.0 | 1.0 | 0.00 | 0.10 | 0.00 | 83 | 1017.1 |
| 20260504031003 | 44 | 332 | 0.0 | 1.0 | 0.00 | 0.10 | 0.00 | 81 | 1017.1 |
| 20260504030503 | 44 | 178 | 0.0 | 1.0 | 0.00 | 0.10 | 0.00 | 81 | 1017.1 |
| 20260504030003 | 44 | 280 | 0.0 | 0.0 | 0.00 | 0.10 | 0.00 | 81 | 1017.1 |
| 20260504025503 | 44 | 280 | 0.0 | 0.0 | 0.00 | 0.10 | 0.00 | 81 | 1017.1 |
| 20260504025003 | 44 | 280 | 0.0 | 1.0 | 0.00 | 0.10 | 0.00 | 80 | 1017.0 |
| 20260504024503 | 44 | 18 | 0.0 | 0.0 | 0.00 | 0.10 | 0.00 | 80 | 1017.0 |
| 20260504024003 | 45 | 18 | 0.0 | 0.0 | 0.00 | 0.10 | 0.00 | 79 | 1017.0 |
| 20260504022503 | 45 | 184 | 0.0 | 1.0 | 0.00 | 0.10 | 0.00 | 78 | 1017.0 |